Regional Weather Roundup
Issued by NWS

Home | Current Version | Previous Version | Text Only | Print | Product List | Glossary On
Versions: 1 2 3 4 5 6 7 8 9 10 11 12 13 14 15 16 17 18 19 20 21 22 23 24 25 26 27 28 29 30 31 32 33 34 35 36 37 38 39 40 41 42 43 44 45 46 47 48 49 50
000
ASUS43 KTOP 020059
RWRKS

WEATHER ROUNDUP FOR KANSAS
NATIONAL WEATHER SERVICE GOODLAND KS
700 PM CST SUN FEB 01 2015

NOTE:  "FAIR" INDICATES FEW OR NO CLOUDS BELOW 12,000 FEET WITH NO
SIGNIFICANT WEATHER AND/OR OBSTRUCTIONS TO VISIBILITY.

KSZ001>006-013>018-027>032-041>047-020200-
NORTHWEST KANSAS

CITY           SKY/WX    TMP DP  RH WIND       PRES   REMARKS
GOODLAND       CLEAR     11   5  77 N14       30.25R WCI  -5
HAYS           FAIR      14   0  52 N21G26    30.31R WCI  -4
HILL CITY      CLEAR     12   4  70 N13       30.32R WCI  -3
RUSSELL        PTCLDY    13   7  77 NW23G30   30.30R WCI  -6
$$

KSZ061>065-074>080-084>089-020200-
SOUTHWEST KANSAS

CITY           SKY/WX    TMP DP  RH WIND       PRES   REMARKS
DODGE CITY     CLEAR     17   6  62 N22G30    30.27R WCI   0
ELKHART          N/A     24  15  68 N6          N/A
GARDEN CITY    CLEAR     16   6  65 N20       30.28R WCI  -1
LIBERAL        CLEAR     21   9  58 N18G24    30.30R WCI   6
$$

KSZ066>073-081>083-090>101-020200-
SOUTHEAST KANSAS

CITY           SKY/WX    TMP DP  RH WIND       PRES   REMARKS
CHANUTE        FLURRIES  17  10  74 NW18G32   30.18R WCI   1
COFFEYVILLE    CLOUDY    20  10  65 NW26G35   30.20R WCI   2
HUTCHINSON     CLOUDY    16   7  67 N21G35    30.26R WCI  -1
MEDICINE LODGE   N/A     20  11  68 N22G36    30.27R WCI   3
NEWTON         MOCLDY    12   3  67 N26G36    30.23R WCI  -8
PARSONS        FLURRIES  20  11  68 NW23G31   30.20R WCI   3
WICHITA INTL   MOCLDY    17   8  67 N26G35    30.25R WCI  -2
WICHITA JABRA  FLURRIES  15  13  91 N22G32    30.24R WCI  -3
WINFIELD       PTCLDY    19   9  65 N24G33    30.25R WCI   2
$$

KSZ007>012-019>026-033>040-048>060-102>105-020200-
NORTHEAST KANSAS

CITY           SKY/WX    TMP DP  RH WIND       PRES   REMARKS
CONCORDIA      MIX PCPN   9   3  77 N20G30    30.30R WCI -10
EMPORIA        CLOUDY    12   6  77 NW24G37   30.21R WCI  -8
LAWRENCE       LGT SNOW  15   9  76 NW26G33   30.18R WCI  -4
MANHATTAN      LGT SNOW  11   5  77 N10G23    30.29R WCI  -3
OLATHE IND     LGT SNOW  16  11  80 NW22G33   30.12R WCI  -2
OLATHE EXE     LGT SNOW  17  14  88 NW22G29   30.09R FOG     WCI   0
SALINA         FLURRIES  14   8  77 N22       30.31R WCI  -4
TOPEKA BILLARD FLURRIES  14   7  73 NW22G32   30.21R WCI  -4
TOPEKA FORBES  LGT SNOW  15   7  70 NW26G38   30.18R WCI  -4
$$



USA.gov is the U.S. government's official web portal to all federal, state and local government web resources and services.